Estación de La capilla
Ultimos registro cada 15 minutos 50
| N° | Estación | Fecha / Hora | Temperatura | Humedad | Lluvia | Velocidad | Dirección | Radiación | Presion |
| 50 | La capilla | 07-05-2026 12:15 | 10,6 | 74 | 0 | 1,3 | 360 | 135 | 1100,6 |
| 49 | La capilla | 07-05-2026 12:00 | 10,7 | 75 | 0 | 0,9 | 360 | 181 | 1100,6 |
| 48 | La capilla | 07-05-2026 11:45 | 10,3 | 76 | 0 | 0 | 360 | 415 | 1100,6 |
| 47 | La capilla | 07-05-2026 11:30 | 10,1 | 80 | 0 | 0 | 360 | 127 | 1100,6 |
| 46 | La capilla | 07-05-2026 11:15 | 10,2 | 81 | 0 | 0 | 338 | 169 | 1100,6 |
| 45 | La capilla | 07-05-2026 11:00 | 10 | 84 | 0 | 0 | 348 | 253 | 1100,6 |
| 44 | La capilla | 07-05-2026 10:45 | 9,6 | 92 | 0 | 0 | 355 | 545 | 1100,6 |
| 43 | La capilla | 07-05-2026 10:30 | 8,8 | 94 | 0 | 0 | 360 | 86 | 1100,6 |
| 42 | La capilla | 07-05-2026 10:15 | 8,8 | 96 | 0 | 0,4 | 360 | 165 | 1100,6 |
| 41 | La capilla | 07-05-2026 10:00 | 8,7 | 97 | 0 | 0 | 360 | 144 | 1100,6 |
| 40 | La capilla | 07-05-2026 09:45 | 8,3 | 98 | 0 | 0 | 360 | 118 | 1100,6 |
| 39 | La capilla | 07-05-2026 09:30 | 8,1 | 99 | 0 | 0 | 360 | 216 | 1100,6 |
| 38 | La capilla | 07-05-2026 09:15 | 7,9 | 99 | 0,2 | 0,4 | 360 | 237 | 1100,6 |
| 37 | La capilla | 07-05-2026 09:00 | 7,6 | 99 | 0 | 0 | 360 | 72 | 1100,6 |
| 36 | La capilla | 07-05-2026 08:45 | 7,1 | 100 | 0 | 0 | 360 | 142 | 1100,6 |
| 35 | La capilla | 07-05-2026 08:30 | 6,6 | 100 | 0 | 0 | 360 | 105 | 1100,6 |
| 34 | La capilla | 07-05-2026 08:15 | 5,9 | 99 | 0 | 0 | 360 | 56 | 1100,6 |
| 33 | La capilla | 07-05-2026 08:00 | 5,4 | 99 | 0 | 0 | 360 | 23 | 1100,6 |
| 32 | La capilla | 07-05-2026 07:45 | 5,2 | 98 | 0 | 0 | 360 | 12 | 1100,6 |
| 31 | La capilla | 07-05-2026 07:30 | 5,2 | 98 | 0 | 0 | 360 | 0 | 1100,6 |
| 30 | La capilla | 07-05-2026 07:15 | 5,2 | 97 | 0 | 0 | 360 | 0 | 1100,6 |
| 29 | La capilla | 07-05-2026 07:00 | 5,3 | 97 | 0 | 0,4 | 360 | 0 | 1100,6 |
| 28 | La capilla | 07-05-2026 06:45 | 6 | 97 | 0 | 0 | 360 | 0 | 1100,6 |
| 27 | La capilla | 07-05-2026 06:30 | 6,3 | 97 | 0 | 0 | 360 | 0 | 1100,6 |
| 26 | La capilla | 07-05-2026 06:15 | 6,8 | 97 | 0 | 0 | 360 | 0 | 1100,6 |
| 25 | La capilla | 07-05-2026 06:00 | 7,1 | 97 | 0 | 0 | 360 | 0 | 1100,5 |
| 24 | La capilla | 07-05-2026 05:45 | 7,2 | 97 | 0 | 0 | 360 | 0 | 1100,4 |
| 23 | La capilla | 07-05-2026 05:30 | 7,3 | 97 | 0,4 | 0 | 360 | 0 | 1100,1 |
| 22 | La capilla | 07-05-2026 05:15 | 7,3 | 97 | 0,6 | 0,4 | 360 | 0 | 1100,1 |
| 21 | La capilla | 07-05-2026 05:00 | 7,3 | 97 | 0,4 | 0 | 360 | 0 | 1099,9 |
| 20 | La capilla | 07-05-2026 04:45 | 7,5 | 97 | 0 | 0 | 360 | 0 | 1099,6 |
| 19 | La capilla | 07-05-2026 04:30 | 7,6 | 97 | 0,6 | 0 | 360 | 0 | 1099,6 |
| 18 | La capilla | 07-05-2026 04:15 | 7,7 | 97 | 0,4 | 0 | 360 | 0 | 1099,7 |
| 17 | La capilla | 07-05-2026 04:00 | 7,7 | 96 | 0 | 0 | 360 | 0 | 1099,7 |
| 16 | La capilla | 07-05-2026 03:45 | 7,7 | 96 | 0,2 | 0 | 360 | 0 | 1099,4 |
| 15 | La capilla | 07-05-2026 03:30 | 7,7 | 96 | 0 | 0,4 | 360 | 0 | 1099,2 |
| 14 | La capilla | 07-05-2026 03:15 | 7,6 | 96 | 0 | 0 | 360 | 0 | 1099 |
| 13 | La capilla | 07-05-2026 03:00 | 7,5 | 97 | 0 | 0 | 360 | 0 | 1098,8 |
| 12 | La capilla | 07-05-2026 02:45 | 7,3 | 96 | 0 | 0 | 360 | 0 | 1098,9 |
| 11 | La capilla | 07-05-2026 02:30 | 7,2 | 96 | 0 | 0 | 360 | 0 | 1098,9 |
| 10 | La capilla | 07-05-2026 02:15 | 7,1 | 96 | 0 | 0 | 360 | 0 | 1098,7 |
| 9 | La capilla | 07-05-2026 02:00 | 6,9 | 96 | 0 | 0 | 360 | 0 | 1098,9 |
| 8 | La capilla | 07-05-2026 01:45 | 6,8 | 96 | 0 | 0 | 360 | 0 | 1098,5 |
| 7 | La capilla | 07-05-2026 01:30 | 6,6 | 95 | 0 | 0 | 360 | 0 | 1098,2 |
| 6 | La capilla | 07-05-2026 01:15 | 6,8 | 95 | 0 | 0 | 360 | 0 | 1098,2 |
| 5 | La capilla | 07-05-2026 01:00 | 6,8 | 95 | 0 | 0 | 360 | 0 | 1098 |
| 4 | La capilla | 07-05-2026 00:45 | 6,8 | 95 | 0 | 0 | 360 | 0 | 1097,7 |
| 3 | La capilla | 07-05-2026 00:30 | 6,9 | 94 | 0 | 0 | 360 | 0 | 1097,6 |
| 2 | La capilla | 07-05-2026 00:15 | 6,9 | 94 | 0 | 0 | 360 | 0 | 1097,5 |
| 1 | La capilla | 07-05-2026 00:00 | 6,8 | 93 | 0 | 0 | 360 | 0 | 1097,6 |